contact:dominique.lefevre@mio.osupytheas.fr, maurice.libes@osupytheas.fr, didier.mallarino@osupytheas.fr
Project:EMSO http://www.emso-fr.org/EMSO-France
Depth: 2436.0 m
Title:EMSO Ligure Ouest : Data MII capteur AQUADOPP
Date,Latitude,Longitude,X_East,Y_North,Z_Up,Amplitude_X,Amplitude_Y,Amplitude_Z,Batterie,SoundSpeed,Heading,Pitch,Roll,Pressure,TIS,Speed,Direction
, degrees North, degrees East, m.s-1, m.s-1,m.s-1, 1, 1, 1, Volt, m.s-1, degree, degree, degree, dbar, degree_C, m.s-1, degree
2022-03-14T00:04:03,42.805,6.029,0.045,0.011,0.017,102.0,103.0,101.0,13.4,1505.2,328.7,-0.7,1.8,2470.737,13.28,0.046,76.3
2022-03-14T00:07:03,42.805,6.029,0.022,-0.012,0.021,102.0,103.0,101.0,13.3,1505.2,331.4,-0.8,1.8,2470.716,13.28,0.025,118.6
2022-03-14T00:10:03,42.805,6.029,0.025,-0.008,0.029,102.0,101.0,102.0,13.4,1505.2,326.6,-0.7,1.8,2470.69,13.28,0.026,107.7
2022-03-14T00:13:03,42.805,6.029,0.01,-0.02,-0.019,102.0,104.0,100.0,13.4,1505.2,326.5,-0.7,1.8,2470.741,13.28,0.022,153.4
2022-03-14T00:16:03,42.805,6.029,0.021,-0.026,-0.017,104.0,102.0,101.0,13.4,1505.2,325.6,-0.7,1.8,2470.713,13.28,0.033,141.1
2022-03-14T00:19:03,42.805,6.029,0.046,-0.021,-0.009,104.0,102.0,102.0,13.3,1505.2,328.8,-0.8,1.9,2470.721,13.28,0.05,114.5
2022-03-14T00:22:03,42.805,6.029,0.01,-0.008,0.012,103.0,102.0,102.0,13.4,1505.2,324.0,-0.8,1.8,2470.711,13.28,0.012,128.7
2022-03-14T00:25:03,42.805,6.029,0.03,-0.016,-0.023,102.0,104.0,102.0,13.4,1505.2,325.8,-0.8,1.8,2470.686,13.28,0.034,118.1
2022-03-14T00:28:03,42.805,6.029,0.031,-0.015,-0.006,103.0,103.0,101.0,13.4,1505.2,325.3,-0.8,1.8,2470.712,13.28,0.034,115.8
2022-03-14T00:31:03,42.805,6.029,0.027,-0.019,-0.008,103.0,103.0,102.0,13.3,1505.2,330.7,-0.7,1.8,2470.678,13.28,0.033,125.1
2022-03-14T00:34:03,42.805,6.029,0.031,-0.024,0.008,102.0,102.0,101.0,13.4,1505.2,324.8,-0.7,1.8,2470.678,13.28,0.039,127.7
2022-03-14T00:37:03,42.805,6.029,0.039,-0.035,-0.007,103.0,105.0,101.0,13.4,1505.2,329.1,-0.8,1.8,2470.712,13.28,0.052,131.9
2022-03-14T00:40:03,42.805,6.029,0.033,-0.012,0.01,103.0,103.0,101.0,13.4,1505.2,328.7,-0.7,1.8,2470.698,13.28,0.035,110.0
2022-03-14T00:43:03,42.805,6.029,0.029,-0.018,0.001,102.0,103.0,101.0,13.3,1505.2,324.0,-0.8,1.8,2470.683,13.28,0.034,121.8
2022-03-14T00:46:03,42.805,6.029,0.002,-0.035,-0.013,102.0,102.0,101.0,13.4,1505.2,323.1,-0.8,1.8,2470.677,13.28,0.035,176.7
2022-03-14T00:49:03,42.805,6.029,0.03,-0.017,-0.01,102.0,104.0,100.0,13.3,1505.2,332.0,-0.8,1.8,2470.705,13.28,0.034,119.5
2022-03-14T00:52:03,42.805,6.029,0.038,-0.038,-0.018,103.0,103.0,101.0,13.4,1505.2,330.2,-0.7,1.8,2470.718,13.28,0.053,135.0
2022-03-14T00:55:03,42.805,6.029,0.027,-0.03,0.016,102.0,102.0,102.0,13.4,1505.2,324.4,-0.8,1.8,2470.688,13.28,0.04,138.0
2022-03-14T00:58:03,42.805,6.029,0.0,-0.029,-0.042,102.0,102.0,101.0,13.3,1505.2,329.0,-0.7,1.8,2470.714,13.28,0.028,180.0
2022-03-14T01:04:03,42.805,6.029,0.054,-0.017,-0.054,104.0,105.0,103.0,13.4,1505.2,330.4,-0.8,1.8,2470.727,13.28,0.056,107.5
2022-03-14T01:07:03,42.805,6.029,0.023,-0.016,-0.002,103.0,102.0,100.0,13.3,1505.2,329.7,-0.8,1.8,2470.695,13.28,0.028,124.8
2022-03-14T01:10:03,42.805,6.029,0.013,-0.028,-0.029,101.0,104.0,101.0,13.4,1505.2,332.1,-0.8,1.8,2470.803,13.28,0.03,155.1
2022-03-14T01:13:03,42.805,6.029,0.025,-0.014,-0.016,102.0,103.0,101.0,13.4,1505.2,331.8,-0.8,1.8,2470.735,13.28,0.028,119.3
2022-03-14T01:16:03,42.805,6.029,0.019,-0.025,-0.036,102.0,102.0,102.0,13.3,1505.2,331.4,-0.8,1.8,2470.706,13.28,0.031,142.8
2022-03-14T01:19:03,42.805,6.029,0.021,-0.008,-0.015,103.0,102.0,101.0,13.4,1505.2,331.5,-0.8,1.8,2470.703,13.28,0.022,110.9
2022-03-14T01:22:03,42.805,6.029,0.042,-0.025,-0.027,102.0,103.0,101.0,13.4,1505.2,326.7,-0.8,1.8,2470.719,13.28,0.048,120.8
2022-03-14T01:25:03,42.805,6.029,0.027,-0.01,-0.006,102.0,103.0,103.0,13.4,1505.2,325.5,-0.8,1.8,2470.726,13.28,0.028,110.3
2022-03-14T01:28:03,42.805,6.029,0.02,-0.033,-0.022,103.0,103.0,99.0,13.4,1505.2,322.7,-0.8,1.8,2470.727,13.28,0.038,148.8
2022-03-14T01:31:03,42.805,6.029,0.022,-0.02,-0.01,103.0,102.0,101.0,13.3,1505.2,331.0,-0.7,1.8,2470.748,13.28,0.029,132.3
2022-03-14T01:34:03,42.805,6.029,0.026,-0.008,0.014,104.0,103.0,100.0,13.4,1505.2,330.2,-0.8,1.8,2470.745,13.28,0.027,107.1
2022-03-14T01:37:03,42.805,6.029,0.006,0.004,0.007,102.0,104.0,101.0,13.3,1505.2,324.5,-0.8,1.8,2470.736,13.28,0.007,56.3
2022-03-14T01:40:03,42.805,6.029,0.014,0.0,-0.014,103.0,103.0,101.0,13.4,1505.2,325.9,-0.7,1.8,2470.705,13.28,0.014,90.0
2022-03-14T01:43:03,42.805,6.029,0.0,-0.024,-0.01,104.0,103.0,101.0,13.4,1505.2,325.7,-0.7,1.8,2470.718,13.28,0.024,180.0
2022-03-14T01:46:03,42.805,6.029,0.035,-0.014,-0.005,103.0,102.0,102.0,13.4,1505.2,327.8,-0.8,1.8,2470.72,13.28,0.037,111.8
2022-03-14T01:49:03,42.805,6.029,0.014,-0.004,-0.02,102.0,103.0,102.0,13.4,1505.2,328.1,-0.8,1.8,2470.708,13.28,0.014,105.9
2022-03-14T01:52:03,42.805,6.029,0.032,-0.029,0.001,101.0,102.0,101.0,13.3,1505.2,327.5,-0.8,1.8,2470.705,13.28,0.043,132.2
2022-03-14T01:55:03,42.805,6.029,0.012,-0.009,-0.002,103.0,103.0,100.0,13.3,1505.2,322.5,-0.7,1.8,2470.728,13.28,0.015,126.9
2022-03-14T01:58:03,42.805,6.029,0.037,-0.035,-0.013,103.0,104.0,101.0,13.4,1505.2,331.8,-0.8,1.8,2470.688,13.28,0.05,133.4
2022-03-14T02:04:03,42.805,6.029,0.025,-0.036,-0.021,102.0,103.0,101.0,13.4,1505.2,324.1,-0.7,1.8,2470.756,13.28,0.043,145.2
2022-03-14T02:07:03,42.805,6.029,0.021,-0.022,0.0,102.0,103.0,101.0,13.4,1505.2,326.9,-0.8,1.8,2470.77,13.28,0.03,136.3
2022-03-14T02:10:03,42.805,6.029,0.041,-0.01,-0.03,104.0,103.0,101.0,13.3,1505.2,322.2,-0.7,1.8,2470.772,13.28,0.042,103.7
2022-03-14T02:13:03,42.805,6.029,0.025,-0.019,0.0,103.0,104.0,101.0,13.4,1505.2,327.4,-0.7,1.8,2470.771,13.28,0.031,127.2
2022-03-14T02:16:03,42.805,6.029,0.018,-0.011,-0.021,103.0,104.0,102.0,13.4,1505.2,326.6,-0.8,1.8,2470.761,13.28,0.021,121.4
2022-03-14T02:19:03,42.805,6.029,0.037,-0.014,-0.01,102.0,102.0,101.0,13.4,1505.2,328.2,-0.7,1.8,2470.765,13.28,0.039,110.7
2022-03-14T02:22:03,42.805,6.029,0.027,-0.019,-0.035,102.0,103.0,103.0,13.4,1505.2,324.3,-0.8,1.8,2470.724,13.28,0.033,125.1
2022-03-14T02:25:03,42.805,6.029,0.016,-0.023,-0.031,104.0,102.0,101.0,13.4,1505.2,327.6,-0.7,1.8,2470.726,13.28,0.028,145.2
2022-03-14T02:28:03,42.805,6.029,0.021,-0.004,-0.002,103.0,103.0,102.0,13.3,1505.2,326.6,-0.8,1.8,2470.72,13.28,0.021,100.8
2022-03-14T02:31:03,42.805,6.029,0.03,-0.022,0.001,104.0,104.0,101.0,13.3,1505.2,330.4,-0.7,1.8,2470.743,13.28,0.037,126.3
2022-03-14T02:34:03,42.805,6.029,0.008,-0.008,-0.003,104.0,103.0,101.0,13.4,1505.2,330.9,-0.7,1.8,2470.727,13.28,0.011,135.0
2022-03-14T02:37:03,42.805,6.029,0.02,-0.006,0.003,103.0,102.0,102.0,13.3,1505.2,324.1,-0.8,1.8,2470.721,13.28,0.02,106.7
2022-03-14T02:40:03,42.805,6.029,0.047,-0.024,-0.018,102.0,104.0,100.0,13.4,1505.2,329.3,-0.7,1.8,2470.749,13.28,0.052,117.0
2022-03-14T02:43:03,42.805,6.029,0.02,-0.018,-0.009,103.0,102.0,102.0,13.4,1505.2,332.7,-0.7,1.8,2470.713,13.28,0.026,132.0
2022-03-14T02:46:03,42.805,6.029,0.016,-0.012,0.008,103.0,103.0,101.0,13.4,1505.2,324.5,-0.8,1.8,2470.717,13.28,0.02,126.9
2022-03-14T02:49:03,42.805,6.029,0.005,-0.014,-0.02,104.0,102.0,102.0,13.4,1505.2,329.7,-0.7,1.9,2470.715,13.28,0.014,160.4
2022-03-14T02:52:03,42.805,6.029,0.035,-0.012,-0.022,103.0,103.0,101.0,13.3,1505.2,325.5,-0.8,1.8,2470.736,13.28,0.037,108.9
2022-03-14T02:55:03,42.805,6.029,0.036,-0.014,-0.028,104.0,103.0,102.0,13.3,1505.2,326.9,-0.7,1.8,2470.71,13.28,0.038,111.2
2022-03-14T02:58:03,42.805,6.029,-0.007,-0.005,-0.011,103.0,103.0,102.0,13.3,1505.2,330.1,-0.8,1.8,2470.731,13.28,0.008,234.5
2022-03-14T03:04:03,42.805,6.029,0.014,-0.006,-0.012,104.0,103.0,103.0,13.4,1505.2,331.6,-0.8,1.8,2470.797,13.28,0.015,113.2
2022-03-14T03:07:03,42.805,6.029,0.009,-0.001,-0.012,103.0,104.0,103.0,13.3,1505.2,325.9,-0.8,1.8,2470.788,13.28,0.009,96.3
2022-03-14T03:10:03,42.805,6.029,0.034,-0.026,-0.006,103.0,105.0,101.0,13.4,1505.2,328.6,-0.8,1.8,2470.826,13.28,0.042,127.4
2022-03-14T03:13:03,42.805,6.029,0.024,-0.01,0.017,103.0,103.0,102.0,13.4,1505.2,323.3,-0.8,1.8,2470.788,13.28,0.026,112.6
2022-03-14T03:16:03,42.805,6.029,0.026,-0.021,0.035,104.0,104.0,102.0,13.4,1505.2,326.2,-0.7,1.8,2470.738,13.28,0.033,128.9
2022-03-14T03:19:03,42.805,6.029,0.01,-0.013,-0.041,105.0,104.0,103.0,13.4,1505.2,328.1,-0.7,1.8,2470.813,13.28,0.016,142.4
2022-03-14T03:22:03,42.805,6.029,0.025,-0.036,-0.019,104.0,105.0,101.0,13.4,1505.2,328.5,-0.7,1.8,2470.766,13.28,0.043,145.2
2022-03-14T03:25:03,42.805,6.029,0.032,-0.015,-0.016,105.0,104.0,102.0,13.3,1505.2,322.7,-0.8,1.8,2470.774,13.28,0.035,115.1
2022-03-14T03:28:03,42.805,6.029,0.022,-0.015,0.0,104.0,104.0,102.0,13.4,1505.2,327.5,-0.7,1.8,2470.772,13.28,0.026,124.3
2022-03-14T03:31:03,42.805,6.029,0.008,-0.022,-0.007,104.0,105.0,102.0,13.3,1505.2,327.8,-0.7,1.8,2470.797,13.28,0.023,160.0
2022-03-14T03:34:03,42.805,6.029,0.005,-0.02,0.0,105.0,104.0,102.0,13.3,1505.2,331.3,-0.8,1.8,2470.794,13.28,0.02,166.0
2022-03-14T03:37:03,42.805,6.029,0.012,-0.022,-0.006,104.0,104.0,103.0,13.4,1505.2,332.6,-0.8,1.8,2470.735,13.28,0.025,151.4
2022-03-14T03:40:03,42.805,6.029,0.04,-0.012,-0.01,103.0,105.0,101.0,13.4,1505.2,329.4,-0.8,1.8,2470.793,13.28,0.041,106.7
2022-03-14T03:43:03,42.805,6.029,0.029,-0.016,0.007,103.0,104.0,103.0,13.3,1505.2,331.6,-0.8,1.8,2470.78,13.28,0.033,118.9
2022-03-14T03:46:03,42.805,6.029,0.019,0.002,0.008,103.0,104.0,102.0,13.4,1505.2,327.7,-0.7,1.8,2470.741,13.28,0.019,84.0
2022-03-14T03:49:03,42.805,6.029,0.026,-0.028,0.0,103.0,104.0,102.0,13.4,1505.2,322.9,-0.7,1.8,2470.802,13.28,0.038,137.1
2022-03-14T03:52:03,42.805,6.029,0.011,-0.024,-0.011,105.0,101.0,102.0,13.3,1505.2,325.4,-0.8,1.8,2470.736,13.28,0.026,155.4
2022-03-14T03:55:03,42.805,6.029,0.054,0.0,0.0,104.0,103.0,102.0,13.3,1505.2,322.7,-0.8,1.8,2470.774,13.28,0.053,90.0
2022-03-14T03:58:03,42.805,6.029,0.019,-0.015,0.008,104.0,103.0,102.0,13.4,1505.2,329.4,-0.8,1.9,2470.756,13.28,0.024,128.3
2022-03-14T04:04:03,42.805,6.029,0.033,-0.014,-0.034,104.0,104.0,102.0,13.4,1505.2,325.2,-0.7,1.8,2470.766,13.28,0.035,113.0
2022-03-14T04:07:03,42.805,6.029,0.035,-0.023,-0.006,104.0,103.0,102.0,13.4,1505.2,328.6,-0.8,1.8,2470.801,13.28,0.041,123.3
2022-03-14T04:10:03,42.805,6.029,0.039,-0.008,-0.003,104.0,103.0,102.0,13.3,1505.2,328.9,-0.7,1.8,2470.831,13.28,0.039,101.6
2022-03-14T04:13:03,42.805,6.029,0.023,-0.008,-0.023,105.0,104.0,101.0,13.4,1505.2,326.5,-0.8,1.8,2470.769,13.28,0.024,109.2
2022-03-14T04:16:03,42.805,6.029,0.027,-0.015,0.0,104.0,104.0,102.0,13.4,1505.2,326.1,-0.7,1.8,2470.816,13.28,0.03,119.1
2022-03-14T04:19:03,42.805,6.029,0.036,-0.011,-0.019,105.0,104.0,101.0,13.4,1505.2,327.4,-0.8,1.8,2470.809,13.28,0.037,107.0
2022-03-14T04:22:03,42.805,6.029,0.042,0.0,-0.003,104.0,104.0,102.0,13.4,1505.2,329.4,-0.8,1.8,2470.754,13.28,0.042,90.0
2022-03-14T04:25:03,42.805,6.029,0.023,-0.025,-0.014,105.0,104.0,102.0,13.3,1505.2,328.7,-0.7,1.8,2470.789,13.28,0.033,137.4
2022-03-14T04:28:03,42.805,6.029,0.045,-0.025,-0.017,105.0,104.0,102.0,13.4,1505.2,327.7,-0.8,1.8,2470.818,13.28,0.051,119.1
2022-03-14T04:31:03,42.805,6.029,0.012,0.0,-0.018,106.0,104.0,102.0,13.4,1505.2,324.5,-0.7,1.8,2470.789,13.28,0.012,90.0
2022-03-14T04:34:03,42.805,6.029,0.028,-0.008,-0.002,104.0,104.0,102.0,13.4,1505.2,326.5,-0.7,1.8,2470.755,13.28,0.029,105.9
2022-03-14T04:37:03,42.805,6.029,0.028,-0.036,0.016,104.0,105.0,102.0,13.4,1505.2,329.2,-0.8,1.9,2470.806,13.28,0.045,142.1
2022-03-14T04:40:03,42.805,6.029,0.018,-0.023,-0.006,103.0,105.0,102.0,13.3,1505.2,324.5,-0.8,1.8,2470.798,13.28,0.029,142.0
2022-03-14T04:43:03,42.805,6.029,0.033,-0.016,0.004,104.0,104.0,102.0,13.4,1505.2,327.5,-0.8,1.8,2470.798,13.28,0.036,115.9
2022-03-14T04:46:03,42.805,6.029,0.013,-0.026,-0.014,103.0,103.0,102.0,13.4,1505.2,324.9,-0.7,1.8,2470.795,13.28,0.029,153.4
2022-03-14T04:49:03,42.805,6.029,0.047,-0.046,-0.051,104.0,104.0,102.0,13.4,1505.2,331.2,-0.8,1.8,2470.812,13.28,0.065,134.4
2022-03-14T04:52:03,42.805,6.029,0.065,-0.035,0.007,103.0,104.0,103.0,13.4,1505.2,326.1,-0.8,1.8,2470.801,13.28,0.073,118.3
2022-03-14T04:55:03,42.805,6.029,0.042,-0.043,-0.027,104.0,104.0,102.0,13.4,1505.2,329.7,-0.8,1.8,2470.793,13.28,0.06,135.7
2022-03-14T04:58:03,42.805,6.029,0.023,-0.028,-0.009,105.0,104.0,102.0,13.3,1505.2,325.0,-0.8,1.8,2470.786,13.28,0.036,140.6
2022-03-14T05:04:03,42.805,6.029,0.033,-0.024,-0.02,105.0,104.0,102.0,13.4,1505.2,322.5,-0.8,1.8,2470.834,13.28,0.04,126.0
2022-03-14T05:07:03,42.805,6.029,0.061,0.0,-0.017,104.0,105.0,102.0,13.3,1505.2,329.0,-0.8,1.8,2470.824,13.28,0.06,90.0
2022-03-14T05:10:03,42.805,6.029,0.013,-0.024,0.003,104.0,104.0,102.0,13.4,1505.2,323.4,-0.7,1.8,2470.867,13.28,0.027,151.6
2022-03-14T05:13:03,42.805,6.029,0.042,-0.041,-0.003,104.0,104.0,101.0,13.4,1505.2,329.7,-0.7,1.8,2470.883,13.28,0.058,134.3
2022-03-14T05:16:03,42.805,6.029,0.026,-0.026,-0.015,104.0,102.0,102.0,13.4,1505.2,332.3,-0.8,1.8,2470.836,13.28,0.036,135.0
2022-03-14T05:19:03,42.805,6.029,0.041,-0.015,-0.033,105.0,104.0,102.0,13.4,1505.2,327.8,-0.8,1.8,2470.821,13.28,0.043,110.1
2022-03-14T05:22:03,42.805,6.029,0.028,-0.02,-0.005,104.0,103.0,101.0,13.4,1505.2,330.2,-0.7,1.8,2470.839,13.28,0.034,125.5
2022-03-14T05:25:03,42.805,6.029,0.023,-0.028,0.002,104.0,103.0,103.0,13.3,1505.2,324.7,-0.8,1.8,2470.821,13.28,0.036,140.6
2022-03-14T05:28:03,42.805,6.029,0.032,-0.021,-0.008,105.0,105.0,103.0,13.3,1505.2,329.0,-0.8,1.8,2470.834,13.28,0.038,123.3
2022-03-14T05:31:03,42.805,6.029,0.009,-0.009,0.014,104.0,104.0,101.0,13.4,1505.2,322.9,-0.8,1.8,2470.829,13.28,0.012,135.0
2022-03-14T05:34:03,42.805,6.029,0.013,-0.04,0.006,104.0,105.0,102.0,13.4,1505.2,330.2,-0.8,1.8,2470.819,13.28,0.042,162.0
2022-03-14T05:37:03,42.805,6.029,0.033,-0.026,-0.007,105.0,104.0,102.0,13.4,1505.2,325.6,-0.8,1.8,2470.845,13.28,0.042,128.2
2022-03-14T05:40:03,42.805,6.029,0.023,-0.021,-0.004,104.0,104.0,102.0,13.4,1505.2,330.2,-0.7,1.8,2470.815,13.28,0.031,132.4
2022-03-14T05:43:03,42.805,6.029,0.028,-0.041,0.004,105.0,104.0,103.0,13.3,1505.2,331.7,-0.7,1.8,2470.8,13.28,0.049,145.7
2022-03-14T05:46:03,42.805,6.029,0.028,-0.012,-0.013,106.0,103.0,102.0,13.4,1505.2,325.0,-0.8,1.8,2470.792,13.28,0.03,113.2
2022-03-14T05:49:03,42.805,6.029,0.031,-0.016,-0.022,107.0,104.0,103.0,13.3,1505.2,327.1,-0.8,1.8,2470.778,13.28,0.034,117.3
2022-03-14T05:52:03,42.805,6.029,0.031,-0.029,-0.029,106.0,105.0,102.0,13.3,1505.2,328.4,-0.7,1.8,2470.783,13.28,0.042,133.1
2022-03-14T05:55:03,42.805,6.029,0.039,-0.026,0.008,106.0,105.0,102.0,13.3,1505.2,328.2,-0.7,1.8,2470.802,13.28,0.046,123.7
2022-03-14T05:58:03,42.805,6.029,0.035,-0.033,0.016,104.0,104.0,103.0,13.3,1505.2,324.9,-0.8,1.8,2470.825,13.28,0.048,133.3
2022-03-14T06:04:03,42.805,6.029,0.018,-0.008,-0.01,105.0,105.0,103.0,13.3,1505.2,325.0,-0.8,1.8,2470.862,13.28,0.019,114.0
2022-03-14T06:07:03,42.805,6.029,0.013,-0.023,-0.021,104.0,106.0,102.0,13.4,1505.2,328.6,-0.7,1.8,2470.839,13.28,0.026,150.5
2022-03-14T06:10:03,42.805,6.029,0.024,-0.031,0.0,105.0,104.0,102.0,13.4,1505.2,323.0,-0.8,1.8,2470.847,13.28,0.039,142.3
2022-03-14T06:13:03,42.805,6.029,0.032,-0.018,0.01,104.0,104.0,103.0,13.3,1505.2,331.6,-0.7,1.8,2470.819,13.28,0.036,119.4
2022-03-14T06:16:03,42.805,6.029,0.048,-0.019,-0.008,104.0,105.0,101.0,13.3,1505.2,327.2,-0.8,1.8,2470.845,13.28,0.051,111.6
2022-03-14T06:19:03,42.805,6.029,0.036,-0.02,-0.002,104.0,104.0,103.0,13.4,1505.2,331.5,-0.8,1.8,2470.796,13.28,0.041,119.1
2022-03-14T06:22:03,42.805,6.029,0.037,-0.039,-0.019,104.0,105.0,102.0,13.4,1505.2,322.9,-0.8,1.8,2470.828,13.28,0.053,136.5
2022-03-14T06:25:03,42.805,6.029,0.038,-0.023,-0.017,102.0,104.0,103.0,13.3,1505.2,324.5,-0.8,1.8,2470.815,13.28,0.044,121.2
2022-03-14T06:28:03,42.805,6.029,0.026,-0.026,0.04,105.0,104.0,101.0,13.4,1505.2,324.7,-0.8,1.9,2470.769,13.28,0.036,135.0
2022-03-14T06:31:03,42.805,6.029,0.027,-0.02,0.013,104.0,104.0,103.0,13.3,1505.2,323.0,-0.8,1.8,2470.776,13.28,0.033,126.5
2022-03-14T06:34:03,42.805,6.029,0.033,-0.012,-0.006,104.0,104.0,102.0,13.4,1505.2,328.5,-0.8,1.8,2470.801,13.28,0.035,110.0
2022-03-14T06:37:03,42.805,6.029,0.014,-0.017,-0.006,105.0,104.0,103.0,13.4,1505.2,326.6,-0.8,1.8,2470.788,13.28,0.022,140.5
2022-03-14T06:40:03,42.805,6.029,0.022,-0.012,0.005,105.0,103.0,103.0,13.4,1505.2,328.7,-0.8,1.8,2470.794,13.28,0.025,118.6
2022-03-14T06:43:03,42.805,6.029,0.047,-0.009,0.027,104.0,104.0,103.0,13.3,1505.2,327.3,-0.7,1.8,2470.807,13.28,0.047,100.8
2022-03-14T06:46:03,42.805,6.029,0.021,-0.02,-0.019,104.0,105.0,102.0,13.4,1505.2,325.1,-0.8,1.9,2470.793,13.28,0.028,133.6
2022-03-14T06:49:03,42.805,6.029,0.046,-0.019,-0.005,106.0,105.0,103.0,13.4,1505.2,331.1,-0.8,1.8,2470.736,13.28,0.049,112.4
2022-03-14T06:52:03,42.805,6.029,0.025,-0.007,0.013,106.0,104.0,103.0,13.4,1505.2,324.0,-0.7,1.8,2470.805,13.28,0.025,105.6
2022-03-14T06:55:03,42.805,6.029,0.04,-0.016,-0.021,105.0,105.0,102.0,13.4,1505.2,323.1,-0.8,1.8,2470.786,13.28,0.043,111.8
2022-03-14T06:58:03,42.805,6.029,0.014,-0.023,-0.009,105.0,105.0,102.0,13.4,1505.2,325.3,-0.7,1.8,2470.763,13.28,0.026,148.7
2022-03-14T07:04:03,42.805,6.029,0.055,-0.046,-0.023,104.0,105.0,102.0,13.3,1505.2,325.9,-0.8,1.8,2470.83,13.28,0.071,129.9
2022-03-14T07:07:03,42.805,6.029,0.036,-0.042,-0.01,104.0,105.0,103.0,13.4,1505.2,329.6,-0.8,1.8,2470.79,13.28,0.055,139.4
2022-03-14T07:10:03,42.805,6.029,0.045,-0.027,-0.02,104.0,106.0,103.0,13.4,1505.2,324.9,-0.8,1.8,2470.826,13.28,0.052,121.0
2022-03-14T07:13:03,42.805,6.029,0.028,-0.041,-0.027,105.0,105.0,102.0,13.3,1505.2,329.7,-0.8,1.8,2470.809,13.28,0.049,145.7
2022-03-14T07:16:03,42.805,6.029,0.041,-0.013,-0.006,106.0,104.0,102.0,13.4,1505.2,327.6,-0.8,1.9,2470.801,13.28,0.043,107.6
2022-03-14T07:19:03,42.805,6.029,0.029,-0.02,-0.014,106.0,104.0,102.0,13.4,1505.2,328.0,-0.8,1.8,2470.795,13.28,0.035,124.6
2022-03-14T07:22:03,42.805,6.029,0.026,-0.029,0.009,104.0,104.0,102.0,13.4,1505.2,325.1,-0.8,1.8,2470.748,13.28,0.038,138.1
2022-03-14T07:25:03,42.805,6.029,0.029,-0.022,-0.009,106.0,104.0,102.0,13.3,1505.2,333.1,-0.7,1.8,2470.763,13.28,0.036,127.2
2022-03-14T07:28:03,42.805,6.029,0.033,-0.043,-0.019,105.0,105.0,102.0,13.3,1505.2,330.7,-0.8,1.8,2470.784,13.28,0.054,142.5
2022-03-14T07:31:03,42.805,6.029,0.017,-0.028,-0.01,105.0,104.0,103.0,13.4,1505.2,326.2,-0.8,1.8,2470.749,13.28,0.032,148.7
2022-03-14T07:34:03,42.805,6.029,0.012,-0.047,-0.015,105.0,105.0,102.0,13.3,1505.2,326.0,-0.8,1.8,2470.759,13.28,0.048,165.7
2022-03-14T07:37:03,42.805,6.029,0.024,-0.033,-0.018,106.0,105.0,103.0,13.3,1505.2,332.3,-0.8,1.8,2470.768,13.28,0.04,144.0
2022-03-14T07:40:03,42.805,6.029,0.038,-0.031,-0.019,106.0,105.0,102.0,13.4,1505.2,332.4,-0.8,1.8,2470.751,13.28,0.049,129.2
2022-03-14T07:43:03,42.805,6.029,0.016,-0.02,-0.026,105.0,105.0,101.0,13.4,1505.2,329.3,-0.8,1.9,2470.725,13.28,0.025,141.3
2022-03-14T07:46:03,42.805,6.029,0.038,-0.04,-0.021,105.0,105.0,103.0,13.3,1505.2,324.4,-0.7,1.8,2470.723,13.28,0.055,136.5
2022-03-14T07:49:03,42.805,6.029,0.053,-0.016,0.02,104.0,105.0,102.0,13.4,1505.2,326.5,-0.7,1.8,2470.746,13.28,0.055,106.8
2022-03-14T07:52:03,42.805,6.029,0.031,-0.018,-0.015,104.0,104.0,103.0,13.3,1505.2,330.0,-0.8,1.8,2470.762,13.28,0.035,120.1
2022-03-14T07:55:03,42.805,6.029,0.052,-0.02,-0.012,104.0,103.0,102.0,13.4,1505.2,324.1,-0.8,1.8,2470.744,13.28,0.055,111.0
2022-03-14T07:58:03,42.805,6.029,0.033,-0.026,-0.007,106.0,105.0,102.0,13.4,1505.2,325.2,-0.7,1.8,2470.708,13.28,0.042,128.2
2022-03-14T08:04:03,42.805,6.029,0.037,-0.052,-0.031,105.0,104.0,102.0,13.3,1505.2,327.0,-0.7,1.8,2470.766,13.28,0.063,144.6
2022-03-14T08:07:03,42.805,6.029,0.015,-0.046,-0.024,105.0,104.0,102.0,13.3,1505.2,329.5,-0.8,1.8,2470.743,13.28,0.048,161.9
2022-03-14T08:10:03,42.805,6.029,0.036,-0.034,-0.003,105.0,104.0,102.0,13.4,1505.2,328.4,-0.7,1.8,2470.78,13.28,0.049,133.4
2022-03-14T08:13:03,42.805,6.029,0.02,-0.022,0.013,105.0,104.0,103.0,13.4,1505.2,326.6,-0.8,1.8,2470.769,13.28,0.029,137.7
2022-03-14T08:16:03,42.805,6.029,0.04,-0.033,-0.01,104.0,104.0,103.0,13.4,1505.2,330.8,-0.7,1.8,2470.779,13.28,0.051,129.5
2022-03-14T08:19:03,42.805,6.029,0.022,-0.038,0.013,105.0,104.0,102.0,13.3,1505.2,331.4,-0.8,1.8,2470.773,13.28,0.043,149.9
2022-03-14T08:22:03,42.805,6.029,0.039,-0.013,0.008,104.0,104.0,102.0,13.3,1505.2,327.6,-0.8,1.8,2470.702,13.28,0.041,108.4
2022-03-14T08:25:03,42.805,6.029,0.033,-0.041,-0.024,105.0,104.0,103.0,13.3,1505.2,324.8,-0.8,1.8,2470.731,13.28,0.052,141.2
2022-03-14T08:28:03,42.805,6.029,0.032,-0.007,0.034,104.0,105.0,103.0,13.4,1505.2,323.2,-0.8,1.8,2470.691,13.28,0.032,102.3
2022-03-14T08:31:03,42.805,6.029,0.047,-0.027,-0.034,104.0,105.0,102.0,13.4,1505.2,326.0,-0.8,1.8,2470.716,13.28,0.054,119.9
2022-03-14T08:34:03,42.805,6.029,0.028,-0.016,-0.007,104.0,105.0,102.0,13.3,1505.2,332.2,-0.8,1.8,2470.734,13.28,0.032,119.7
2022-03-14T08:37:03,42.805,6.029,0.032,-0.012,0.008,104.0,104.0,103.0,13.4,1505.2,326.8,-0.8,1.8,2470.721,13.28,0.034,110.6
2022-03-14T08:40:03,42.805,6.029,0.037,-0.006,-0.025,105.0,105.0,102.0,13.4,1505.2,328.7,-0.8,1.8,2470.757,13.28,0.037,99.2
2022-03-14T08:43:03,42.805,6.029,0.037,-0.016,-0.008,104.0,105.0,102.0,13.4,1505.2,324.4,-0.8,1.8,2470.724,13.28,0.04,113.4
2022-03-14T08:46:03,42.805,6.029,0.034,-0.02,0.007,105.0,103.0,102.0,13.3,1505.2,325.6,-0.7,1.8,2470.681,13.28,0.039,120.5
2022-03-14T08:49:03,42.805,6.029,0.026,-0.033,0.011,105.0,105.0,101.0,13.4,1505.2,323.6,-0.8,1.8,2470.751,13.28,0.042,141.8
2022-03-14T08:52:03,42.805,6.029,0.02,-0.023,-0.011,104.0,103.0,102.0,13.3,1505.2,324.3,-0.8,1.8,2470.67,13.28,0.03,139.0
2022-03-14T08:55:03,42.805,6.029,0.036,-0.019,-0.01,105.0,104.0,102.0,13.4,1505.2,329.3,-0.8,1.8,2470.737,13.28,0.04,117.8
2022-03-14T08:58:03,42.805,6.029,0.043,-0.012,-0.022,104.0,104.0,103.0,13.4,1505.2,322.9,-0.7,1.9,2470.704,13.28,0.044,105.6
2022-03-14T09:04:03,42.805,6.029,0.025,-0.03,0.003,105.0,104.0,102.0,13.4,1505.2,331.7,-0.8,1.8,2470.709,13.28,0.039,140.2
2022-03-14T09:07:03,42.805,6.029,0.016,-0.03,-0.017,105.0,104.0,103.0,13.4,1505.2,327.8,-0.8,1.8,2470.741,13.28,0.034,151.9
2022-03-14T09:10:03,42.805,6.029,0.049,-0.042,0.015,104.0,104.0,102.0,13.3,1505.2,327.5,-0.8,1.8,2470.719,13.28,0.064,130.6
2022-03-14T09:13:03,42.805,6.029,0.042,-0.024,0.003,105.0,105.0,101.0,13.3,1505.2,325.4,-0.7,1.8,2470.728,13.28,0.048,119.7
2022-03-14T09:16:03,42.805,6.029,0.026,-0.021,-0.006,105.0,105.0,102.0,13.4,1505.2,325.2,-0.7,1.8,2470.732,13.28,0.033,128.9
2022-03-14T09:19:03,42.805,6.029,0.035,-0.035,-0.009,104.0,104.0,102.0,13.4,1505.2,325.8,-0.8,1.8,2470.714,13.28,0.049,135.0
2022-03-14T09:22:03,42.805,6.029,0.053,-0.03,-0.036,106.0,103.0,102.0,13.3,1505.2,332.6,-0.8,1.8,2470.693,13.28,0.06,119.5
2022-03-14T09:25:03,42.805,6.029,0.053,-0.046,-0.032,105.0,103.0,102.0,13.4,1505.2,331.7,-0.8,1.8,2470.722,13.28,0.07,131.0
2022-03-14T09:28:03,42.805,6.029,0.036,-0.016,-0.006,104.0,104.0,102.0,13.3,1505.2,330.4,-0.8,1.8,2470.692,13.28,0.039,114.0
2022-03-14T09:31:03,42.805,6.029,0.042,-0.031,-0.024,103.0,104.0,102.0,13.4,1505.2,326.3,-0.8,1.8,2470.686,13.28,0.052,126.4
2022-03-14T09:34:03,42.805,6.029,0.036,-0.029,-0.011,105.0,103.0,102.0,13.4,1505.2,326.3,-0.7,1.8,2470.685,13.28,0.046,128.9
2022-03-14T09:37:03,42.805,6.029,0.04,-0.034,0.008,103.0,103.0,102.0,13.4,1505.2,327.8,-0.8,1.8,2470.684,13.28,0.052,130.4
2022-03-14T09:40:03,42.805,6.029,0.036,-0.018,-0.01,104.0,104.0,101.0,13.4,1505.2,323.9,-0.8,1.8,2470.695,13.28,0.04,116.6
2022-03-14T09:43:03,42.805,6.029,0.052,-0.036,-0.033,103.0,103.0,102.0,13.4,1505.2,331.0,-0.7,1.8,2470.674,13.28,0.063,124.7
2022-03-14T09:46:03,42.805,6.029,0.024,-0.04,-0.012,104.0,103.0,103.0,13.4,1505.2,329.0,-0.7,1.8,2470.701,13.28,0.046,149.0
2022-03-14T09:49:03,42.805,6.029,0.03,-0.045,-0.034,105.0,104.0,102.0,13.3,1505.2,328.9,-0.8,1.8,2470.696,13.28,0.054,146.3
2022-03-14T09:52:03,42.805,6.029,0.025,-0.03,-0.012,104.0,104.0,102.0,13.4,1505.2,327.3,-0.8,1.8,2470.696,13.28,0.039,140.2
2022-03-14T09:55:03,42.805,6.029,0.03,-0.036,-0.007,104.0,104.0,103.0,13.3,1505.2,331.5,-0.7,1.8,2470.664,13.28,0.046,140.2